SCP
-0 -0 -0 -0 -0 -0 -0 -0 -0 -0 -0 -0 0 0 0 0 0 -0 -0 -0 -0 -0 -0 -0 -0 -0 -0 -0 -0 -0 -0 -0 -0 -0 -0 -0 -0 -0 -0 -0 -0 0 0
-0 -0 0 0 0 0 -0 -0 -0 0 0 0 0 0 0 0 0 0 -0 -0 0 -0 -0 -0 -0 -0 -0 -0 -0 -0 -0 -0 -0 -0 -0 -0 -0 -0 -0 -0 -0 -0 -0
0 0 0 0 -0 -0 0 0 0 -0 -0 0 0 0 0 0 0 0 0 0 0 -0 -0 -0 -0 -0 -0 -0 -0 -0 -0 -0 -0 -0 -0 -0 -0 -0 -0 -0 -0 -0 -0
-0 0 0 -0 -0 -0 -0 -0 -0 0 -0 -0 -0 -0 -0 0 -0 -0 0 0 0 0 0 -0 -0 -0 -1 -1 -1 -0 -1 -1 -1 -1 -1 -0 -0 -0 -0 -0 -0 -0 -0
0 0 0 -0 -0 0 0 0 0 0 0 0 0 0 -0 -0 -0 -0 -0 -0 -0 -0 -0 -0 -0 -0 -0 -1 -1 -1 -1 -1 -1 -1 -1 -1 -0 -0 -0 -0 -0 -0 -0
0 0 0 -0 0 0 -0 -0 -0 -0 -0 -0 -0 0 -0 -0 -0 0 -0 0 0 0 0 -0 0 -0 -0 -0 -0 -0 -0 -1 -1 -1 -1 -1 -1 -1 -0 -0 -0 -0 -0
0 -0 -0 0 0 -0 0 0 0 0 0 0 -0 -0 -0 0 0 0 0 0 0 0 0 0 0 0 0 -0 -0 -0 -0 -0 -0 -0 -0 -0 -1 -1 -1 -0 -0 -0 -0
-0 -0 -0 -0 -0 -0 -0 -0 -0 -0 -0 0 0 -0 0 0 0 0 0 0 0 0 0 0 0 0 0 0 0 -0 -0 -0 -0 -0 -0 -0 -0 -0 -0 -0 -0 -0 -0
0 0 0 0 0 -0 0 0 0 0 -0 0 0 0 0 0 0 0 0 0 0 0 0 0 0 0 0 0 0 0 -0 -0 -0 -0 -0 -0 -0 -0 -0 -0 -0 -0 -0
0 0 0 0 0 0 0 0 0 0 0 0 0 0 0 0 0 0 0 0 0 0 0 0 0 0 0 0 0 0 -0 0 0 0 -0 -0 -0 0 -0 -0 -0 -0 -0
0 0 0 0 0 0 0 0 0 0 0 0 0 0 0 0 0 0 0 0 0 0 -0 -0 -0 -0 0 0 0 0 -0 0 0 0 0 0 0 0 0 -0 -0 -0 -0
0 0 0 0 0 0 0 0 0 0 0 0 0 0 0 0 0 0 0 0 -0 -0 0 -0 0 0 0 0 0 0 0 0 0 0 0 0 0 0 0 0 0 -0 -0
0 0 0 0 0 0 0 0 0 0 0 0 0 0 0 0 0 0 0 0 0 0 0 0 0 0 -0 0 -0 0 0 0 0 0 0 0 0 0 0 0 0 0 0
0 0 0 -0 0 0 0 0 0 0 0 0 0 0 0 0 0 0 0 0 0 0 0 0 0 0 0 0 0 0 0 0 0 0 0 0 0 0 0 0 0 0 0
0 0 -0 -0 0 0 0 0 0 0 0 0 0 0 0 0 0 0 0 0 0 0 -0 0 0 0 0 0 0 0 0 0 0 0 0 0 0 0 0 0 0 0 0
0 0 0 0 0 0 0 0 0 0 0 0 0 0 0 0 0 0 0 0 0 0 0 0 0 0 0 0 0 0 0 0 0 0 0 0 0 0 0 0 0 0 0
0 0 0 0 0 0 0 0 0 0 0 0 0 0 0 0 0 0 0 0 0 0 0 0 0 0 0 0 0 0 0 0 0 0 0 0 0 0 0 0 0 0 0
0 0 0 0 0 0 0 0 0 0 0 0 0 0 0 0 0 0 0 0 0 0 0 0 0 0 0 0 0 0 0 0 0 0 0 0 0 0 0 0 0 0 0
0 0 0 0 0 0 0 0 0 0 0 0 0 0 0 0 0 0 0 0 0 0 0 0 0 0 0 0 0 0 0 0 0 0 0 0 0 0 0 0 0 0 0
0 0 0 0 0 0 0 0 0 0 0 0 0 0 0 0 0 0 0 0 0 0 0 0 0 0 0 0 0 0 0 0 0 0 0 0 0 0 0 0 0 0 0
0 0 0 0 0 0 0 0 0 0 0 0 0 0 0 0 0 0 0 0 0 0 0 0 0 0 0 0 0 0 0 0 0 0 1 1 1 1 1 0 0 0 0
0 0 0 0 0 0 0 0 0 0 0 0 0 0 0 0 0 0 0 0 0 0 0 0 0 0 0 0 0 0 0 0 0 0 1 1 0 1 1 0 0 0 0
0 0 0 0 0 0 0 0 0 0 0 0 0 0 0 0 0 0 0 0 0 0 0 0 0 0 0 0 0 0 0 0 0 0 0 0 0 1 1 1 0 0 0
0 0 0 0 0 0 0 0 0 0 0 0 0 0 0 0 0 0 0 0 0 0 0 0 0 0 0 0 0 0 0 0 0 0 0 0 0 1 0 0 0 0 0
0 0 0 0 0 0 0 0 0 0 0 0 0 0 0 0 0 0 0 0 0 0 0 0 0 0 0 0 0 0 0 0 0 0 0 0 0 0 0 1 0 0 0
0 0 0 0 0 0 0 0 0 0 0 0 0 0 0 0 0 0 0 0 0 0 0 0 0 0 0 0 0 0 0 0 0 0 0 0 0 0 0 0 0 0 0
Wind_Speed_500mb
11 14 16 16 14 15 14 19 16 17 17 17 23 26 29 26 30 32 32 34 30 27 28 28 29 31 29 31 29 27 26 26 25 26 26 24 20 17 17 16 16 15 13
14 11 16 15 14 12 13 17 19 19 20 23 26 28 31 33 35 34 31 29 30 29 31 30 31 33 28 30 33 33 31 31 31 30 30 29 29 26 23 20 20 21 19
6 11 13 14 17 10 13 17 19 21 21 23 27 31 35 37 39 42 39 35 36 34 35 35 31 27 28 28 29 34 35 33 36 34 33 33 35 33 30 28 25 24 24
6 6 8 9 12 12 10 12 18 16 15 17 16 18 20 23 25 28 34 36 40 38 35 36 31 25 27 28 28 30 34 36 37 39 38 37 37 39 39 36 32 29 26
6 9 9 10 13 13 10 9 9 12 11 15 16 16 19 23 24 28 29 29 33 37 39 36 34 33 32 30 28 24 30 34 34 37 39 39 38 39 42 41 40 37 33
15 15 13 12 14 16 15 16 17 19 18 17 19 20 20 22 25 30 32 34 30 33 37 38 36 38 34 34 33 33 30 29 31 37 39 40 40 39 42 43 42 43 43
15 20 20 20 21 17 17 21 23 23 20 17 22 25 21 24 25 26 29 29 31 33 36 40 36 39 40 39 36 35 40 37 35 36 35 38 38 38 41 43 44 43 45
23 20 20 24 25 25 22 20 20 23 23 17 21 23 16 15 12 12 10 14 18 21 29 30 35 36 42 43 44 46 47 43 35 41 35 34 40 40 40 41 44 45 45
21 25 26 30 25 26 27 24 23 25 24 21 19 15 11 7 12 16 12 13 17 22 21 27 29 32 34 32 34 47 49 50 47 43 47 41 41 42 39 41 42 45 44
23 16 16 25 32 30 31 28 26 25 28 23 24 19 22 29 20 15 17 26 31 27 22 24 25 26 31 29 32 37 41 43 41 40 40 47 48 46 49 43 44 44 44
19 19 22 25 26 22 17 23 24 26 24 22 24 24 26 26 26 28 39 28 32 26 27 27 30 31 28 30 28 29 30 34 38 39 39 42 49 48 48 50 47 47 45
25 24 19 16 19 25 21 23 19 17 21 22 27 25 24 22 22 23 30 38 39 37 31 27 27 25 24 22 29 30 32 32 32 33 36 45 49 44 46 47 48 48 48
16 17 21 20 23 26 24 26 29 26 24 22 21 18 20 20 21 24 27 33 37 42 36 30 22 21 23 27 27 30 29 34 39 41 34 38 38 38 39 41 43 48 48
25 26 25 32 34 34 36 34 29 28 28 28 28 25 23 25 24 24 23 25 27 30 38 29 26 17 19 20 22 26 24 24 28 35 45 42 34 41 39 41 40 42 47
30 32 32 35 40 41 39 34 31 30 32 33 33 30 28 29 24 23 23 22 23 18 31 25 24 21 23 25 23 25 26 27 28 30 34 39 41 38 41 40 41 42 45
28 29 30 30 28 27 26 25 23 22 23 27 30 32 35 35 35 33 32 32 25 24 29 35 38 37 32 30 29 31 34 34 34 31 28 26 22 25 38 48 40 42 37
23 21 21 21 21 22 22 21 19 19 18 19 21 22 26 30 32 34 35 33 30 27 34 39 35 33 33 30 27 27 31 32 34 33 30 31 33 36 39 44 49 43 42
20 17 17 18 18 19 20 21 21 21 19 19 18 19 20 22 26 27 29 30 31 31 34 41 39 34 33 29 29 28 25 30 30 29 34 38 41 40 39 40 42 47 47
19 16 15 16 17 20 25 27 23 17 14 13 13 13 15 16 16 18 20 21 26 26 30 36 40 39 39 35 34 31 29 27 27 28 29 33 35 39 41 42 45 44 43
15 15 15 16 19 25 28 19 16 14 13 13 14 15 16 15 15 16 15 15 18 22 23 25 28 31 31 27 30 35 34 32 33 31 30 31 32 34 36 42 44 47 47
12 13 15 15 17 13 16 16 18 16 14 14 14 14 13 13 15 16 18 18 20 23 25 27 29 32 32 33 34 33 35 36 33 33 32 32 35 37 35 41 45 49 47
12 10 8 8 12 9 15 15 18 19 19 17 15 16 17 17 17 20 24 26 25 25 25 26 26 30 28 27 30 32 33 33 31 22 25 26 28 32 35 36 41 43 46
12 11 9 8 7 11 17 17 19 24 26 24 22 20 19 17 19 22 20 19 20 19 19 20 21 23 27 28 31 32 28 25 25 24 28 24 15 14 13 20 26 28 30
13 15 14 12 12 17 18 19 19 22 27 29 26 24 23 23 22 21 16 13 14 13 12 12 13 15 17 19 24 29 27 24 22 23 20 25 20 16 15 17 17 19 21
18 19 13 15 16 17 22 14 19 24 29 29 24 21 20 21 18 16 15 11 11 11 7 7 10 13 17 23 25 25 23 22 18 13 18 21 19 22 16 7 12 14 19
15 11 9 13 16 18 20 22 24 28 31 26 21 19 18 16 11 9 14 9 10 9 10 12 15 19 22 23 22 21 19 16 14 9 13 15 16 18 9 10 10 16 19
Wind_Direction_500mb
215 235 236 243 225 216 223 226 238 244 248 249 242 247 236 255 256 261 263 256 258 268 260 262 255 254 255 252 248 248 247 247 239 235 236 238 233 231 224 226 238 232 228
223 233 222 232 225 235 245 242 241 245 251 250 252 252 247 255 252 254 257 249 252 261 264 265 267 258 255 255 248 248 252 251 252 251 246 243 248 237 234 231 230 243 247
215 208 218 223 232 234 247 252 252 255 264 265 261 256 256 257 256 253 253 250 248 256 263 261 256 259 250 250 252 247 248 251 252 250 252 248 246 246 243 236 234 229 237
199 197 204 216 223 223 226 250 248 260 276 281 284 276 265 263 260 255 253 255 250 255 259 262 259 258 262 261 256 251 248 250 252 250 250 251 249 245 246 247 239 238 236
255 242 233 226 218 224 233 257 267 271 288 294 289 291 284 275 272 269 261 261 261 260 263 264 266 261 257 261 255 254 252 250 250 253 254 254 252 251 247 247 247 243 240
258 251 252 239 246 254 252 256 272 282 289 283 284 294 285 273 272 270 271 268 263 257 259 259 260 263 260 249 252 252 250 254 253 253 254 255 254 251 248 247 247 245 243
279 261 259 259 270 257 263 261 267 273 283 293 293 290 285 278 272 274 269 269 265 268 265 258 255 253 255 252 253 256 259 256 256 260 253 254 252 250 248 247 248 245 243
275 271 270 263 262 265 267 267 264 267 273 284 295 310 312 301 254 281 272 266 262 272 278 267 254 251 251 255 257 258 261 262 264 259 259 256 256 254 250 248 247 245 247
268 266 271 264 265 274 268 264 258 273 275 277 279 268 291 279 286 290 275 289 282 283 298 276 266 254 250 259 262 256 259 265 264 263 258 260 258 259 255 252 249 247 243
283 268 271 260 265 267 265 263 262 272 273 283 278 267 262 270 287 286 261 288 288 288 280 279 271 274 255 252 261 272 262 261 259 260 273 265 262 264 260 255 254 249 245
255 255 292 278 276 278 278 280 267 265 274 278 281 273 272 272 274 281 291 291 284 288 289 277 274 274 278 259 258 275 259 260 260 266 262 267 262 258 257 253 251 250 247
277 269 273 277 265 263 269 273 286 294 282 279 274 278 274 272 273 275 285 297 300 298 293 286 272 274 274 256 271 270 267 268 260 268 255 270 268 255 248 259 249 251 247
281 257 269 275 284 279 296 299 297 288 286 290 288 287 284 278 278 281 287 294 296 301 306 294 291 285 272 267 267 274 271 263 261 262 266 281 263 245 251 257 252 251 249
284 287 285 289 297 301 297 293 283 277 279 280 281 284 281 279 281 285 289 296 301 303 304 311 315 300 282 277 272 273 274 271 266 267 272 277 273 249 243 246 247 248 248
288 287 290 293 294 297 298 296 291 280 272 272 274 275 276 278 281 285 289 290 294 300 308 314 322 307 297 285 278 272 262 277 270 267 281 272 266 251 235 250 247 249 249
296 295 293 294 299 305 309 312 310 302 291 283 278 275 272 272 272 276 280 284 284 281 284 294 306 308 304 296 287 274 270 270 277 271 282 272 264 259 257 248 238 245 247
308 307 302 306 312 317 320 320 321 319 311 303 295 289 282 280 276 273 272 273 275 281 286 293 301 309 311 306 297 284 278 276 274 268 267 255 248 258 259 249 244 242 247
313 315 315 316 319 327 327 319 314 316 312 310 304 299 292 292 289 283 275 271 271 272 283 290 297 305 309 311 306 300 290 281 275 270 262 256 255 259 256 251 248 251 250
316 315 321 321 322 329 331 331 328 326 329 329 329 327 326 325 318 312 303 286 276 276 277 287 296 300 301 306 306 302 298 291 286 280 272 268 268 265 257 254 253 252 251
315 307 310 317 321 330 338 352 358 356 352 347 344 343 340 334 331 335 330 310 295 290 288 290 295 298 305 308 315 314 304 296 286 280 280 279 277 272 265 259 256 256 255
315 310 306 315 325 339 358 6 7 0 351 337 329 327 324 328 330 325 319 311 303 297 293 292 296 299 298 299 306 314 317 315 305 293 283 278 275 275 272 265 259 254 253
316 307 300 317 338 346 354 346 350 345 340 331 316 294 291 296 305 313 315 311 306 308 305 303 306 308 316 312 309 311 315 317 325 324 307 291 292 279 274 275 277 269 256
312 301 285 321 283 292 311 315 332 333 334 331 313 300 298 296 304 312 311 308 306 308 311 309 312 310 315 320 320 318 317 310 315 325 317 320 324 322 304 289 287 285 276
304 306 263 254 256 276 293 301 313 324 332 328 321 306 307 306 307 308 309 313 313 319 311 303 299 305 317 333 334 335 322 307 303 306 308 315 325 320 320 310 297 294 293
296 309 266 262 277 284 293 308 305 315 324 327 320 306 308 309 312 303 300 305 315 321 344 344 334 328 322 324 320 320 323 317 310 291 276 297 307 311 319 282 277 298 308
284 288 292 294 295 291 297 303 304 312 320 323 319 313 314 321 334 327 327 320 323 294 280 287 296 302 308 318 323 325 320 307 307 292 289 310 301 311 312 276 276 300 316
Wind_Speed_850mb
11 14 16 16 14 15 14 19 16 17 17 17 23 26 29 26 30 32 32 34 30 27 28 28 29 31 29 31 29 27 26 26 25 26 26 24 20 17 17 16 16 15 13
14 11 16 15 14 12 13 17 19 19 20 23 26 28 31 33 35 34 31 29 30 29 31 30 31 33 28 30 33 33 31 31 31 30 30 29 29 26 23 20 20 21 19
6 11 13 14 17 10 13 17 19 21 21 23 27 31 35 37 39 42 39 35 36 34 35 35 31 27 28 28 29 34 35 33 36 34 33 33 35 33 30 28 25 24 24
6 6 8 9 12 12 10 12 18 16 15 17 16 18 20 23 25 28 34 36 40 38 35 36 31 25 27 28 28 30 34 36 37 39 38 37 37 39 39 36 32 29 26
6 9 9 10 13 13 10 9 9 12 11 15 16 16 19 23 24 28 29 29 33 37 39 36 34 33 32 30 28 24 30 34 34 37 39 39 38 39 42 41 40 37 33
15 15 13 12 14 16 15 16 17 19 18 17 19 20 20 22 25 30 32 34 30 33 37 38 36 38 34 34 33 33 30 29 31 37 39 40 40 39 42 43 42 43 43
15 20 20 20 21 17 17 21 23 23 20 17 22 25 21 24 25 26 29 29 31 33 36 40 36 39 40 39 36 35 40 37 35 36 35 38 38 38 41 43 44 43 45
23 20 20 24 25 25 22 20 20 23 23 17 21 23 16 15 12 12 10 14 18 21 29 30 35 36 42 43 44 46 47 43 35 41 35 34 40 40 40 41 44 45 45
21 25 26 30 25 26 27 24 23 25 24 21 19 15 11 7 12 16 12 13 17 22 21 27 29 32 34 32 34 47 49 50 47 43 47 41 41 42 39 41 42 45 44
23 16 16 25 32 30 31 28 26 25 28 23 24 19 22 29 20 15 17 26 31 27 22 24 25 26 31 29 32 37 41 43 41 40 40 47 48 46 49 43 44 44 44
19 19 22 25 26 22 17 23 24 26 24 22 24 24 26 26 26 28 39 28 32 26 27 27 30 31 28 30 28 29 30 34 38 39 39 42 49 48 48 50 47 47 45
25 24 19 16 19 25 21 23 19 17 21 22 27 25 24 22 22 23 30 38 39 37 31 27 27 25 24 22 29 30 32 32 32 33 36 45 49 44 46 47 48 48 48
16 17 21 20 23 26 24 26 29 26 24 22 21 18 20 20 21 24 27 33 37 42 36 30 22 21 23 27 27 30 29 34 39 41 34 38 38 38 39 41 43 48 48
25 26 25 32 34 34 36 34 29 28 28 28 28 25 23 25 24 24 23 25 27 30 38 29 26 17 19 20 22 26 24 24 28 35 45 42 34 41 39 41 40 42 47
30 32 32 35 40 41 39 34 31 30 32 33 33 30 28 29 24 23 23 22 23 18 31 25 24 21 23 25 23 25 26 27 28 30 34 39 41 38 41 40 41 42 45
28 29 30 30 28 27 26 25 23 22 23 27 30 32 35 35 35 33 32 32 25 24 29 35 38 37 32 30 29 31 34 34 34 31 28 26 22 25 38 48 40 42 37
23 21 21 21 21 22 22 21 19 19 18 19 21 22 26 30 32 34 35 33 30 27 34 39 35 33 33 30 27 27 31 32 34 33 30 31 33 36 39 44 49 43 42
20 17 17 18 18 19 20 21 21 21 19 19 18 19 20 22 26 27 29 30 31 31 34 41 39 34 33 29 29 28 25 30 30 29 34 38 41 40 39 40 42 47 47
19 16 15 16 17 20 25 27 23 17 14 13 13 13 15 16 16 18 20 21 26 26 30 36 40 39 39 35 34 31 29 27 27 28 29 33 35 39 41 42 45 44 43
15 15 15 16 19 25 28 19 16 14 13 13 14 15 16 15 15 16 15 15 18 22 23 25 28 31 31 27 30 35 34 32 33 31 30 31 32 34 36 42 44 47 47
12 13 15 15 17 13 16 16 18 16 14 14 14 14 13 13 15 16 18 18 20 23 25 27 29 32 32 33 34 33 35 36 33 33 32 32 35 37 35 41 45 49 47
12 10 8 8 12 9 15 15 18 19 19 17 15 16 17 17 17 20 24 26 25 25 25 26 26 30 28 27 30 32 33 33 31 22 25 26 28 32 35 36 41 43 46
12 11 9 8 7 11 17 17 19 24 26 24 22 20 19 17 19 22 20 19 20 19 19 20 21 23 27 28 31 32 28 25 25 24 28 24 15 14 13 20 26 28 30
13 15 14 12 12 17 18 19 19 22 27 29 26 24 23 23 22 21 16 13 14 13 12 12 13 15 17 19 24 29 27 24 22 23 20 25 20 16 15 17 17 19 21
18 19 13 15 16 17 22 14 19 24 29 29 24 21 20 21 18 16 15 11 11 11 7 7 10 13 17 23 25 25 23 22 18 13 18 21 19 22 16 7 12 14 19
15 11 9 13 16 18 20 22 24 28 31 26 21 19 18 16 11 9 14 9 10 9 10 12 15 19 22 23 22 21 19 16 14 9 13 15 16 18 9 10 10 16 19
Wind_Direction_850mb
215 235 236 243 225 216 223 226 238 244 248 249 242 247 236 255 256 261 263 256 258 268 260 262 255 254 255 252 248 248 247 247 239 235 236 238 233 231 224 226 238 232 228
223 233 222 232 225 235 245 242 241 245 251 250 252 252 247 255 252 254 257 249 252 261 264 265 267 258 255 255 248 248 252 251 252 251 246 243 248 237 234 231 230 243 247
215 208 218 223 232 234 247 252 252 255 264 265 261 256 256 257 256 253 253 250 248 256 263 261 256 259 250 250 252 247 248 251 252 250 252 248 246 246 243 236 234 229 237
199 197 204 216 223 223 226 250 248 260 276 281 284 276 265 263 260 255 253 255 250 255 259 262 259 258 262 261 256 251 248 250 252 250 250 251 249 245 246 247 239 238 236
255 242 233 226 218 224 233 257 267 271 288 294 289 291 284 275 272 269 261 261 261 260 263 264 266 261 257 261 255 254 252 250 250 253 254 254 252 251 247 247 247 243 240
258 251 252 239 246 254 252 256 272 282 289 283 284 294 285 273 272 270 271 268 263 257 259 259 260 263 260 249 252 252 250 254 253 253 254 255 254 251 248 247 247 245 243
279 261 259 259 270 257 263 261 267 273 283 293 293 290 285 278 272 274 269 269 265 268 265 258 255 253 255 252 253 256 259 256 256 260 253 254 252 250 248 247 248 245 243
275 271 270 263 262 265 267 267 264 267 273 284 295 310 312 301 254 281 272 266 262 272 278 267 254 251 251 255 257 258 261 262 264 259 259 256 256 254 250 248 247 245 247
268 266 271 264 265 274 268 264 258 273 275 277 279 268 291 279 286 290 275 289 282 283 298 276 266 254 250 259 262 256 259 265 264 263 258 260 258 259 255 252 249 247 243
283 268 271 260 265 267 265 263 262 272 273 283 278 267 262 270 287 286 261 288 288 288 280 279 271 274 255 252 261 272 262 261 259 260 273 265 262 264 260 255 254 249 245
255 255 292 278 276 278 278 280 267 265 274 278 281 273 272 272 274 281 291 291 284 288 289 277 274 274 278 259 258 275 259 260 260 266 262 267 262 258 257 253 251 250 247
277 269 273 277 265 263 269 273 286 294 282 279 274 278 274 272 273 275 285 297 300 298 293 286 272 274 274 256 271 270 267 268 260 268 255 270 268 255 248 259 249 251 247
281 257 269 275 284 279 296 299 297 288 286 290 288 287 284 278 278 281 287 294 296 301 306 294 291 285 272 267 267 274 271 263 261 262 266 281 263 245 251 257 252 251 249
284 287 285 289 297 301 297 293 283 277 279 280 281 284 281 279 281 285 289 296 301 303 304 311 315 300 282 277 272 273 274 271 266 267 272 277 273 249 243 246 247 248 248
288 287 290 293 294 297 298 296 291 280 272 272 274 275 276 278 281 285 289 290 294 300 308 314 322 307 297 285 278 272 262 277 270 267 281 272 266 251 235 250 247 249 249
296 295 293 294 299 305 309 312 310 302 291 283 278 275 272 272 272 276 280 284 284 281 284 294 306 308 304 296 287 274 270 270 277 271 282 272 264 259 257 248 238 245 247
308 307 302 306 312 317 320 320 321 319 311 303 295 289 282 280 276 273 272 273 275 281 286 293 301 309 311 306 297 284 278 276 274 268 267 255 248 258 259 249 244 242 247
313 315 315 316 319 327 327 319 314 316 312 310 304 299 292 292 289 283 275 271 271 272 283 290 297 305 309 311 306 300 290 281 275 270 262 256 255 259 256 251 248 251 250
316 315 321 321 322 329 331 331 328 326 329 329 329 327 326 325 318 312 303 286 276 276 277 287 296 300 301 306 306 302 298 291 286 280 272 268 268 265 257 254 253 252 251
315 307 310 317 321 330 338 352 358 356 352 347 344 343 340 334 331 335 330 310 295 290 288 290 295 298 305 308 315 314 304 296 286 280 280 279 277 272 265 259 256 256 255
315 310 306 315 325 339 358 6 7 0 351 337 329 327 324 328 330 325 319 311 303 297 293 292 296 299 298 299 306 314 317 315 305 293 283 278 275 275 272 265 259 254 253
316 307 300 317 338 346 354 346 350 345 340 331 316 294 291 296 305 313 315 311 306 308 305 303 306 308 316 312 309 311 315 317 325 324 307 291 292 279 274 275 277 269 256
312 301 285 321 283 292 311 315 332 333 334 331 313 300 298 296 304 312 311 308 306 308 311 309 312 310 315 320 320 318 317 310 315 325 317 320 324 322 304 289 287 285 276
304 306 263 254 256 276 293 301 313 324 332 328 321 306 307 306 307 308 309 313 313 319 311 303 299 305 317 333 334 335 322 307 303 306 308 315 325 320 320 310 297 294 293
296 309 266 262 277 284 293 308 305 315 324 327 320 306 308 309 312 303 300 305 315 321 344 344 334 328 322 324 320 320 323 317 310 291 276 297 307 311 319 282 277 298 308
284 288 292 294 295 291 297 303 304 312 320 323 319 313 314 321 334 327 327 320 323 294 280 287 296 302 308 318 323 325 320 307 307 292 289 310 301 311 312 276 276 300 316